[Iaude] MPEC G139: 2024 GS2 [a=2.07,e=0.51,i=12.8,H=23.6]

mpec at cfa.harvard.edu mpec at cfa.harvard.edu
Wed Apr 10 16:47:38 EDT 2024


M.P.E.C. 2024-G139                               Issued 2024 April 10, 20:46 UT

     The Minor Planet Electronic Circulars contain information on unusual
         minor planets, routine data on comets and natural satellites,
         and occasional editorial announcements.  They are published
    on behalf of Division F of the International Astronomical Union by the
          Minor Planet Center, Smithsonian Astrophysical Observatory,
                          Cambridge, MA 02138, U.S.A.
			  
             Prepared using the Tamkin Foundation Computer Network

                              MPC at CFA.HARVARD.EDU
            URL https://www.minorplanetcenter.net/    ISSN 1523-6714

                                    2024 GS2                                    


Observations:
     K24G02S* C2024 04 09.31469612 40 10.791+12 08 41.52         20.19wXEG139F52
     K24G02S  C2024 04 09.32584112 40 11.238+12 06 32.46         20.14wXEG139F52
     K24G02S  C2024 04 09.33700512 40 11.686+12 04 23.31         20.29wXEG139F52
     K24G02S  C2024 04 09.55684112 40 20.044+11 22 03.04         20.19GVEG139F51
     K24G02S  C2024 04 09.55732312 40 20.067+11 21 57.56               VEG139F51
     K24G02S 0B2024 04 09.85758 12 40 47.038+10 26 07.19         19.5 VZEG139M49
     K24G02S 0B2024 04 09.86450 12 40 47.328+10 24 48.49         19.8 VZEG139M49
     K24G02S KC2024 04 09.86856012 40 47.755+10 22 20.46         19.9 GVEG139J95
     K24G02S 0B2024 04 09.87140 12 40 47.558+10 23 30.95         20.1 VZEG139M49
     K24G02S KC2024 04 09.87972012 40 48.310+10 20 15.36         19.9 GVEG139J95
     K24G02S KC2024 04 10.23083 12 41 11.72 +09 15 12.1          18.9 RVEG139G58
     K24G02S KC2024 04 10.23448 12 41 11.92 +09 14 32.3          18.8 RVEG139G58
     K24G02S KC2024 04 10.23873 12 41 12.10 +09 13 45.4          18.9 RVEG139G58
     K24G02S KB2024 04 10.82884412 41 51.37 +07 26 46.7          19.8 GXEG139958
     K24G02S KB2024 04 10.83686012 41 51.72 +07 25 21.0          19.2 GXEG139958
     K24G02S KB2024 04 10.84476512 41 52.11 +07 23 55.9          19.9 GXEG139958

Observer details:
958 Observatoire de Dax.  Observer P. Dupouy.  0.50-m f/4.5 Reflector + CMO.
F51 Pan-STARRS 1, Haleakala.  Observers J. Herman, T. Lowe, P. Minguez, A.
    Schultz, I. Smith.  Measurers K. Chambers, T. de Boer, J. Fairlamb, H.
    Gao, M. Huber, C.-C. Lin, E. Magnier, Y. Ramanjooloo, R. Wainscoat, R.
    Weryk.  1.8-m Ritchey-Chretien + CCD.
F52 Pan-STARRS 2, Haleakala.  Observers J. Herman, T. Lowe, P. Minguez, A.
    Schultz, I. Smith.  Measurers K. Chambers, T. de Boer, J. Fairlamb, H.
    Gao, M. Huber, C.-C. Lin, E. Magnier, Y. Ramanjooloo, R. Wainscoat, R.
    Weryk.  1.8-m Ritchey-Chretien + CCD.
G58 Chabot Space and Science Center, Oakland.  Observer G. McKeegan.  0.9-m
    f/4.5 Cassegrain+CCD.
J95 Great Shefford.  Observer P. Birtwhistle.  0.41-m f/6.3 Schmidt-Cassegrain
    + CCD.
M49 IAS Remote Observatory, Hakos.  Observers D. Husar, M. Junius.  Measurer
    D. Husar.  0.25-m f/4.5 reflector + CMO.

Orbital elements:
2024 GS2                                                 Earth MOID = 0.0887 AU
Epoch 2024 Mar. 31.0 TT = JDT 2460400.5                 MPC                     
M   8.36274              (2000.0)            P               Q                  
n   0.33094462     Peri.  134.89684     -0.92830160     -0.36037051             
a   2.0699785      Node    24.42487     +0.24686636     -0.78153789             
e   0.5089184      Incl.   12.79752     +0.27805241     -0.50924613             
P   2.98           H   23.68          G   0.15           U   8                  
Residuals in seconds of arc
240409 F52  0.2-  0.2+    240409 M49  0.3+  0.3-    240410 G58  0.4+  0.0
240409 F52  0.3-  0.1-    240409 J95  0.3+  0.2-    240410 958  0.3-  0.6+
240409 F52  0.1-  0.2-    240409 M49  0.0   0.3-    240410 958  0.9-  0.2+
240409 F51  0.0   0.0     240409 J95  0.3+  0.1+    240410 958  0.6-  0.9-
240409 F51  0.0   0.0     240410 G58  0.4-  0.4-
240409 M49  0.1-  0.5+    240410 G58  0.3+  0.1+

Ephemeris:
2024 GS2                 a,e,i = 2.07, 0.51, 13                  q = 1.0165
Date    TT    R. A. (2000) Decl.     Delta      r    Elong.  Phase     V
2024 03 11    05 55 08.1 +84 50 46   0.1613  1.0185    94.4    76.5    22.4
...
2024 03 26    12 07 03.3 +62 42 43   0.1039  1.0458   115.1    59.8    21.0
...
2024 04 03    12 30 54.3 +34 59 34   0.09293 1.0722   139.5    37.3    20.2
...
2024 04 09    12 39 45.6 +13 10 30   0.1020  1.0967   157.8    20.1    19.9
2024 04 10    12 40 54.1 +09 58 50   0.1049  1.1012   160.2    18.0    19.9
2024 04 11    12 41 59.0 +06 57 28   0.1082  1.1057   162.2    16.1    19.9
...
2024 04 17    12 47 35.1 -07 32 55   0.1343  1.1348   166.6    11.9    20.3
...
2024 04 25    12 54 00.2 -19 10 28   0.1808  1.1781   160.7    16.4    21.2
...
2024 05 10    13 06 37.1 -28 53 22   0.2905  1.2696   150.0    23.4    22.6

A. U. Tomatic                (C) Copyright 2024 MPC           M.P.E.C. 2024-G139





More information about the Iaude mailing list